Regional Weather Roundup
Issued by NWS

Home | Current Version | Previous Version | Graphics & Text | Print | Product List | Glossary On
Versions: 1 2 3 4 5 6 7 8 9 10 11 12 13 14 15 16 17 18 19 20 21 22 23 24 25 26 27 28 29 30 31 32 33 34 35 36 37 38 39 40 41 42 43 44 45 46 47 48 49 50
000
ASUS43 KLOT 312306
RWRIL

ILLINOIS REGIONAL WEATHER ROUNDUP
NATIONAL WEATHER SERVICE CHICAGO/ROMEOVILLE IL
600 PM CDT FRI OCT 31 2014

NOTE: "FAIR" INDICATES FEW OR NO CLOUDS BELOW 12,000 FEET WITH NO
SIGNIFICANT WEATHER AND/OR OBSTRUCTIONS TO VISIBILITY.

* THESE STATIONS ARE NOT UNDER NWS QUALITY CONTROL. THEY ALSO MAY NOT
  REPORT WEATHER SUCH AS PRECIPITATION OR FOG.

ILZ001-002-007-009-015-016-024-010000-
NORTHWEST ILLINOIS

CITY           SKY/WX    TMP DP  RH WIND       PRES   REMARKS
MOLINE         CLEAR     40  18  41 N17G24    30.38R
STERLING*      PTCLDY    37  18  44 N16G23    30.37R WCI  28
SAVANNA*       CLEAR     38  16  40 N10G18    30.39R WCI  31
$$

ILZ003-004-008-010-011-017-018-010000-
NORTH CENTRAL ILLINOIS

CITY           SKY/WX    TMP DP  RH WIND       PRES   REMARKS
ROCKFORD       MOCLDY    38  18  44 N22G28    30.37R WCI  27
FREEPORT*      PTCLDY    36  17  46 N13G18    30.39R WCI  27
ROCHELLE*      MOCLDY    36  18  47 N18G29    30.35R WCI  26
DE KALB*       CLOUDY    35  17  47 N22G36    30.33R WCI  24
PERU*          CLOUDY    40  21  47 N16G24    30.35R
$$

ILZ005-006-012>014-019>023-010000-
NORTHEAST ILLINOIS

CITY           SKY/WX    TMP DP  RH WIND       PRES   REMARKS
CHICAGO-OHARE  CLOUDY    38  19  46 N25G37    30.28R WCI  27
CHICAGO-MIDWAY FLURRIES  36  31  82 N26G39    30.28R WCI  24
AURORA         CLOUDY    38  17  42 N20G29    30.31R WCI  28
LANSING*       MOCLDY    38  28  67 N21G38    30.24R WCI  28
JOLIET*        CLOUDY    38  19  47 N18G30    30.29R WCI  28
WAUKEGAN       CLOUDY    36  19  50 N16G30    30.29R WCI  26
DUPAGE AIRPORT CLOUDY    38  19  46 N25G35    30.29R WCI  27
KANKAKEE*      CLOUDY    37  28  67 N16G28    30.26R WCI  28
WHEELING       CLOUDY    39  19  44 N22G33    30.31R WCI  29
MORRIS*        CLOUDY    38  21  51 N14G23    30.29R WCI  29
ROMEOVILLE*    CLOUDY    38  19  47 N17G29    30.29R WCI  28
NORTHERLY ISL    N/A     40  31  70 NW26        N/A
$$

LMZ740>746-010000-
SOUTHERN LAKE MICHIGAN

STATION/POSITION SKY/WX   TEMP    WIND        PRES    VSBY  WAVE
                          AIR SEA DIR/SP/G                  HT/PER
                          (F)     (DEG/KT/KT) (MB)    (MI)  (FT/S)
SOUTHERN BUOY              40 47  360/ 31/ 39 1024.1R        16/10
WAUKEGAN HARBOR            37     350/ 25/ 33   N/A
HARRISON CRIB              41     360/ 41/ 54   N/A
BURNHAM HARBOR             38     330/ 24/ 35   N/A
CALUMET HARBOR             40     350/ 25/ 38 1023.1R
MICHIGAN CITY              41     360/ 42/ 51   N/A
$$

ILZ025>027-034>036-040-047-049-050-058-095>099-010000-
WEST-CENTRAL ILLINOIS

CITY           SKY/WX    TMP DP  RH WIND       PRES   REMARKS
QUINCY         CLEAR     40  20  44 N15G25    30.37R
GALESBURG*     CLEAR     38  21  51 N10       30.37R WCI  31
MACOMB*        CLEAR     40  20  45 N16       30.39R
JACKSONVILLE*  PTCLDY    42  21  42 N15       30.34R
PITTSFIELD*    CLEAR     41  22  46 NW12G20   30.37R
$$

ILZ028>032-037-038-041>044-048-051>054-059>061-010000-
CENTRAL ILLINOIS

CITY           SKY/WX    TMP DP  RH WIND       PRES   REMARKS
PONTIAC        PTCLDY    39  23  52 N22G29    30.31R WCI  28
BLOOMINGTON    CLOUDY    39  22  51 N22G31    30.30R WCI  28
DECATUR        PTCLDY    38  22  52 N25       30.29R WCI  27
PEORIA         CLEAR     41  18  39 N10G23    30.35R
LACON*         MOCLDY    38  17  42 N13G24    30.34R WCI  31
LINCOLN*       CLEAR     40  22  48 N12G20    30.32R
SPRINGFIELD    CLEAR     42  21  43 N15G26    30.32R
TAYLORVILLE    CLEAR     37  23  56 N17G26    30.30R WCI  28
$$

ILZ033-039-045-046-055>057-062-063-010000-
EAST-CENTRAL ILLINOIS

CITY           SKY/WX    TMP DP  RH WIND       PRES   REMARKS
CHAMPAIGN      PTCLDY    38  23  55 N29G36    30.23R WCI  26
DANVILLE*      CLOUDY    38  27  63 N28G41    30.16R WCI  27
RANTOUL*       CLOUDY    40  24  51 N23G33    30.24R
MATTOON        CLOUDY    38  23  55 N24G32    30.23R WCI  27
PARIS*         CLOUDY    40  26  59 N23G36    30.19R
$$

ILZ079-100>102-010000-
SOUTHWEST ILLINOIS

CITY           SKY/WX    TMP DP  RH WIND       PRES   REMARKS
BELLEVILLE     CLEAR     43  21  41 NW15G23   30.30R
CAHOKIA*       CLEAR     44  20  38 N22G28    30.33R
SPARTA*        CLEAR     42  21  43 N13G25    30.30R
$$

ILZ064>066-069>071-074>076-080>082-084>086-088>090-092>094-010000-
SOUTH-CENTRAL ILLINOIS

CITY           SKY/WX    TMP DP  RH WIND       PRES   REMARKS
CARBONDALE     PTCLDY    43  21  41 N13G22    30.27R
CAIRO*         CLEAR     46  22  38 N20       30.26R
EFFINGHAM*     MOCLDY    40  20  44 N21G30    30.26R
MARION         PTCLDY    45  23  42 N18       30.26R
MT. VERNON     MOCLDY    43  21  42 N6        30.26R
CENTRALIA*     MOCLDY    43  21  41 N15G30    30.27R
SALEM*         CLOUDY    45  24  42 N17G24    30.26R
METROPOLIS*    PTCLDY    44  25  46 NW14G23   30.23S
$$

ILZ067-068-072-073-078-083-087-091-010000-
SOUTHEAST ILLINOIS

CITY           SKY/WX    TMP DP  RH WIND       PRES   REMARKS
LAWRENCEVILLE  CLOUDY    41  26  55 NW28G38   30.18R
FLORA*         PTCLDY    42  25  51 N24G30    30.25R
FAIRFIELD*     CLOUDY    44  24  46 NW13G21   30.22R
HARRISBURG*    MOCLDY    44  22  42 N17G29    30.24R
ROBINSON*      CLOUDY    43  28  56 NW30G38   30.19R
CARMI*         CLOUDY    45  28  51 NW24G31   30.21R
$$

ABBREVIATIONS USED IN REMARKS
   TC - TEMPERATURE IN CELSIUS
  WCI - WIND CHILL INDEX
   HX - HEAT INDEX
  VSB - VISIBILITY
$$




USA.gov is the U.S. government's official web portal to all federal, state and local government web resources and services.